Ely, MN

9:55 AM CST on December 13, 2017 (GMT -0600)
Ely Municipal

Weather History for KELO - June, 2013

Change the Weather History Date:

Tuesday, June 18, 2013

  Actual Average Record
Temperature  
Mean Temperature 53 °F -  
Max Temperature 71 °F 69 °F 82 °F (2016)
Min Temperature 35 °F 48 °F 35 °F (2008)
Degree Days  
Heating Degree Days 12    
Growing Degree Days 3 (Base 50)    
Moisture  
Dew Point 36 °F    
Average Humidity 56    
Maximum Humidity 100    
Minimum Humidity 27    
Precipitation  
Precipitation 0.00 in - - ()
Sea Level Pressure  
Sea Level Pressure 30.11 in    
Wind  
Wind Speed 1 mph (SSW)    
Max Wind Speed 13 mph    
Max Gust Speed 16 mph    
Visibility 10 miles    
Events      
Averages and records for this station are not official NWS values.
T = Trace of Precipitation, MM = Missing Value Source: NWS Daily Summary

Daily Weather History Graph

Daily Weather History Graph

Search for Another Location

Airport or City:

Trip Planner

Search our weather history database for the weather conditions in past years. The results will help you decide how hot, cold, wet, or windy it might be!

Date:

Astronomy

Jun. 18, 2013 Rise Set
Actual Time 5:08 AM CDT 9:09 PM CDT
Civil Twilight 4:27 AM CDT 9:50 PM CDT
Nautical Twilight 3:30 AM CDT 10:47 PM CDT
Astronomical Twilight 1:55 AM CDT 12:22 AM CDT
Moon 3:37 PM CDT (6/18) 1:36 AM CDT (6/18)
Length of Visible Light 17h 23m
Length of Day
16h 00m
Waxing Gibbous, 71% of the Moon is Illuminated
Jun 18
Waxing Gibbous
Jun 23
Full
Jun 29
Last Quarter
Jul 8
New
Jul 15
First Quarter

Hourly Weather History & Observations

Time (CDT) Temp. Windchill Dew Point Humidity Pressure Visibility Wind Dir Wind Speed Gust Speed Precip Events Conditions
12:13 AM 42.8 °F - 41.0 °F 93% 30.11 in 10.0 mi Calm Calm - N/A   Clear
12:33 AM 42.8 °F - 39.2 °F 87% 30.11 in 10.0 mi Calm Calm - N/A   Clear
12:52 AM 39.2 °F - 37.4 °F 93% 30.12 in 10.0 mi Calm Calm - N/A   Clear
1:13 AM 39.2 °F - 37.4 °F 93% 30.12 in 10.0 mi Calm Calm - N/A   Clear
1:33 AM 39.2 °F - 37.4 °F 93% 30.12 in 10.0 mi Calm Calm - N/A   Clear
1:53 AM 39.2 °F - 37.4 °F 93% 30.12 in 10.0 mi Calm Calm - N/A   Clear
2:12 AM 37.4 °F - 35.6 °F 93% 30.13 in 10.0 mi Calm Calm - N/A   Clear
2:33 AM 37.4 °F - 35.6 °F 93% 30.13 in 10.0 mi Calm Calm - N/A   Clear
2:53 AM 35.6 °F - 35.6 °F 100% 30.13 in 10.0 mi Calm Calm - N/A   Clear
3:13 AM 37.4 °F - 35.6 °F 93% 30.14 in 10.0 mi Calm Calm - N/A   Clear
3:33 AM 37.4 °F - 35.6 °F 93% 30.14 in 10.0 mi Calm Calm - N/A   Clear
3:53 AM 37.4 °F - 35.6 °F 93% 30.14 in 10.0 mi Calm Calm - N/A   Clear
4:13 AM 37.4 °F - 35.6 °F 93% 30.14 in 10.0 mi Calm Calm - N/A   Clear
4:33 AM 35.6 °F - 33.8 °F 93% 30.15 in 10.0 mi Calm Calm - N/A   Clear
4:53 AM 35.6 °F - 33.8 °F 93% 30.15 in 10.0 mi Calm Calm - N/A   Clear
5:13 AM 35.6 °F - 33.8 °F 93% 30.15 in 10.0 mi Calm Calm - N/A   Clear
5:33 AM 35.6 °F - 33.8 °F 93% 30.16 in 10.0 mi Calm Calm - N/A   Clear
5:53 AM 35.6 °F - 33.8 °F 93% 30.16 in 10.0 mi Calm Calm - N/A   Clear
6:12 AM 37.4 °F - 35.6 °F 93% 30.16 in 10.0 mi Calm Calm - N/A   Clear
6:33 AM 39.2 °F - 37.4 °F 93% 30.16 in 10.0 mi Calm Calm - N/A   Clear
6:52 AM 42.8 °F - 39.2 °F 87% 30.17 in 10.0 mi Calm Calm - N/A   Clear
7:13 AM 46.4 °F - 39.2 °F 76% 30.17 in 10.0 mi Calm Calm - N/A   Clear
7:33 AM 48.2 °F - 41.0 °F 76% 30.16 in 10.0 mi Calm Calm - N/A   Clear
7:52 AM 51.8 °F - 37.4 °F 58% 30.16 in 10.0 mi Calm Calm - N/A   Clear
8:13 AM 53.6 °F - 41.0 °F 62% 30.16 in 10.0 mi Calm Calm - N/A   Clear
8:33 AM 55.4 °F - 41.0 °F 58% 30.17 in 10.0 mi Calm Calm - N/A   Clear
8:52 AM 57.2 °F - 39.2 °F 51% 30.17 in 10.0 mi Calm Calm - N/A   Clear
9:13 AM 59.0 °F - 41.0 °F 51% 30.16 in 10.0 mi Calm Calm - N/A   Clear
9:33 AM 60.8 °F - 39.2 °F 45% 30.16 in 10.0 mi Calm Calm - N/A   Clear
9:52 AM 62.6 °F - 39.2 °F 42% 30.16 in 10.0 mi Calm Calm - N/A   Clear
10:13 AM 62.6 °F - 39.2 °F 42% 30.16 in 10.0 mi Calm Calm - N/A   Clear
10:33 AM 64.4 °F - 39.2 °F 40% 30.15 in 10.0 mi Calm Calm - N/A   Clear
10:52 AM 64.4 °F - 39.2 °F 40% 30.15 in 10.0 mi Calm Calm - N/A   Clear
11:13 AM 64.4 °F - 39.2 °F 40% 30.15 in 10.0 mi Calm Calm - N/A   Clear
11:33 AM 64.4 °F - 35.6 °F 34% 30.15 in 10.0 mi Calm Calm - N/A   Clear
11:53 AM 66.2 °F - 35.6 °F 32% 30.14 in 10.0 mi Calm Calm - N/A   Clear
12:13 PM 66.2 °F - 37.4 °F 35% 30.14 in 10.0 mi Calm Calm - N/A   Clear
12:32 PM 68.0 °F - 35.6 °F 30% 30.13 in 10.0 mi Calm Calm - N/A   Clear
12:53 PM 68.0 °F - 35.6 °F 30% 30.13 in 10.0 mi South 6.9 mph - N/A   Clear
1:13 PM 69.8 °F - 33.8 °F 27% 30.12 in 10.0 mi ESE 3.5 mph - N/A   Clear
1:32 PM 69.8 °F - 35.6 °F 28% 30.11 in 10.0 mi South 5.8 mph - N/A   Clear
1:53 PM 69.8 °F - 33.8 °F 27% 30.11 in 10.0 mi ESE 3.5 mph - N/A   Clear
2:12 PM 69.8 °F - 33.8 °F 27% 30.10 in 10.0 mi Calm Calm - N/A   Clear
2:33 PM 69.8 °F - 35.6 °F 28% 30.10 in 10.0 mi Calm Calm - N/A   Clear
2:53 PM 71.6 °F - 35.6 °F 27% 30.09 in 10.0 mi SW 3.5 mph - N/A   Clear
3:13 PM 71.6 °F - 37.4 °F 29% 30.09 in 10.0 mi WNW 3.5 mph - N/A   Mostly Cloudy
3:32 PM 71.6 °F - 35.6 °F 27% 30.09 in 10.0 mi SW 4.6 mph - N/A   Mostly Cloudy
3:53 PM 71.6 °F - 35.6 °F 27% 30.08 in 10.0 mi Calm Calm - N/A   Scattered Clouds
4:13 PM 69.8 °F - 35.6 °F 28% 30.08 in 10.0 mi Calm Calm - N/A   Scattered Clouds
4:32 PM 69.8 °F - 37.4 °F 31% 30.08 in 10.0 mi West 4.6 mph - N/A   Scattered Clouds
4:53 PM 71.6 °F - 37.4 °F 29% 30.06 in 10.0 mi Calm Calm - N/A   Scattered Clouds
5:12 PM 71.6 °F - 37.4 °F 29% 30.06 in 10.0 mi Calm Calm - N/A   Scattered Clouds
5:33 PM 71.6 °F - 37.4 °F 29% 30.06 in 10.0 mi WSW 5.8 mph - N/A   Scattered Clouds
5:52 PM 71.6 °F - 37.4 °F 29% 30.06 in 10.0 mi SSW 5.8 mph - N/A   Mostly Cloudy
6:13 PM 71.6 °F - 35.6 °F 27% 30.05 in 10.0 mi SSW 10.4 mph - N/A   Mostly Cloudy
6:33 PM 69.8 °F - 35.6 °F 28% 30.05 in 10.0 mi SSW 8.1 mph - N/A   Scattered Clouds
6:52 PM 69.8 °F - 35.6 °F 28% 30.05 in 10.0 mi South 9.2 mph - N/A   Clear
7:13 PM 69.8 °F - 33.8 °F 27% 30.05 in 10.0 mi SSE 12.7 mph 16.1 mph N/A   Clear
7:33 PM 66.2 °F - 33.8 °F 30% 30.06 in 10.0 mi South 10.4 mph - N/A   Clear
7:52 PM 66.2 °F - 33.8 °F 30% 30.06 in 10.0 mi South 5.8 mph - N/A   Clear
8:13 PM 64.4 °F - 30.2 °F 28% 30.07 in 10.0 mi South 9.2 mph - N/A   Clear
8:32 PM 62.6 °F - 32.0 °F 32% 30.06 in 10.0 mi South 6.9 mph - N/A   Clear
8:53 PM 60.8 °F - 32.0 °F 34% 30.06 in 10.0 mi SSE 4.6 mph - N/A   Clear
9:13 PM 59.0 °F - 30.2 °F 34% 30.06 in 10.0 mi Calm Calm - N/A   Clear
9:33 PM 57.2 °F - 33.8 °F 41% 30.07 in 10.0 mi Calm Calm - N/A   Clear
9:53 PM 55.4 °F - 35.6 °F 47% 30.07 in 10.0 mi Calm Calm - N/A   Clear
10:13 PM 50.0 °F - 39.2 °F 66% 30.07 in 10.0 mi Calm Calm - N/A   Clear
10:33 PM 48.2 °F - 39.2 °F 71% 30.07 in 10.0 mi Calm Calm - N/A   Clear
10:53 PM 48.2 °F - 39.2 °F 71% 30.06 in 10.0 mi Calm Calm - N/A   Clear
11:13 PM 46.4 °F - 39.2 °F 76% 30.06 in 10.0 mi Calm Calm - N/A   Clear
11:33 PM 44.6 °F 43.1 °F 35.6 °F 71% 30.06 in 10.0 mi SSW 3.5 mph - N/A   Clear
11:53 PM 48.2 °F - 35.6 °F 62% 30.06 in 10.0 mi SSW 4.6 mph - N/A   Clear